TimeEDT,TemperatureF,Dew PointF,Humidity,Sea Level PressureIn,VisibilityMPH,Wind Direction,Wind SpeedMPH,Gust SpeedMPH,PrecipitationIn,Events,Conditions,WindDirDegrees,DateUTC
12:54 AM,63.0,55.9,78,30.12,10.0,West,8.1,-,N/A,,Mostly Cloudy,280,2012-10-05 04:54:00
1:54 AM,59.0,55.9,90,30.11,10.0,West,6.9,-,N/A,,Partly Cloudy,280,2012-10-05 05:54:00
2:54 AM,57.0,52.0,83,30.13,10.0,NW,6.9,-,N/A,,Partly Cloudy,320,2012-10-05 06:54:00
3:54 AM,55.0,52.0,89,30.12,10.0,NW,4.6,-,N/A,,Scattered Clouds,320,2012-10-05 07:54:00
4:54 AM,54.0,51.1,90,30.14,10.0,NW,9.2,-,N/A,,Mostly Cloudy,310,2012-10-05 08:54:00
5:54 AM,52.0,45.0,77,30.14,10.0,NW,10.4,-,N/A,,Overcast,320,2012-10-05 09:54:00
6:54 AM,52.0,46.0,80,30.14,10.0,NNW,4.6,-,N/A,,Overcast,330,2012-10-05 10:54:00
7:54 AM,52.0,46.0,80,30.14,10.0,NNW,6.9,-,N/A,,Mostly Cloudy,330,2012-10-05 11:54:00
8:29 AM,51.8,46.4,82,30.14,10.0,North,9.2,-,N/A,,Overcast,350,2012-10-05 12:29:00
8:50 AM,51.8,46.4,82,30.15,10.0,North,5.8,-,N/A,,Overcast,350,2012-10-05 12:50:00
8:54 AM,51.1,46.0,83,30.16,10.0,NNW,8.1,-,N/A,,Overcast,340,2012-10-05 12:54:00
8:57 AM,51.8,46.4,82,30.16,10.0,NNW,9.2,-,N/A,Thunderstorm,Thunderstorm,330,2012-10-05 12:57:00
9:12 AM,50.0,46.4,87,30.14,8.0,North,4.6,-,0.01,Rain-Thunderstorm,Light Thunderstorms and Rain,350,2012-10-05 13:12:00
9:50 AM,50.0,48.2,94,30.15,9.0,NW,5.8,-,0.03,Rain,Light Rain,310,2012-10-05 13:50:00
9:54 AM,50.0,48.0,93,30.15,9.0,NW,3.5,-,0.04,Rain,Light Rain,320,2012-10-05 13:54:00
10:06 AM,50.0,48.2,94,30.17,10.0,NW,5.8,-,0.00,,Overcast,320,2012-10-05 14:06:00
10:33 AM,48.2,46.4,93,30.17,10.0,WNW,3.5,-,0.00,Rain-Thunderstorm,Light Thunderstorms and Rain,290,2012-10-05 14:33:00
10:54 AM,48.9,46.9,93,30.17,5.0,WNW,8.1,-,0.00,Rain-Thunderstorm,Light Thunderstorms and Rain,290,2012-10-05 14:54:00
11:21 AM,48.2,46.4,93,30.17,6.0,NW,10.4,-,0.06,Rain,Light Rain,310,2012-10-05 15:21:00
11:37 AM,48.2,46.4,93,30.15,4.0,NW,4.6,-,0.10,Rain,Rain,310,2012-10-05 15:37:00
11:54 AM,48.0,46.0,93,30.14,3.0,NW,4.6,-,0.14,Rain,Light Rain,310,2012-10-05 15:54:00
12:07 PM,46.4,46.4,100,30.15,4.0,WNW,4.6,-,0.04,Rain,Light Rain,300,2012-10-05 16:07:00
12:50 PM,46.4,44.6,93,30.14,3.0,NW,6.9,-,0.19,Rain,Rain,310,2012-10-05 16:50:00
12:54 PM,46.4,44.6,93,30.13,3.0,NNW,8.1,-,N/A,Rain,Rain,330,2012-10-05 16:54:00
1:03 PM,46.4,46.4,100,30.12,3.0,North,8.1,-,0.02,Rain-Thunderstorm,Thunderstorms and Rain,350,2012-10-05 17:03:00
1:26 PM,48.2,46.4,93,30.12,7.0,NNW,4.6,-,0.05,Rain,Light Rain,340,2012-10-05 17:26:00
1:51 PM,48.2,46.4,93,30.12,10.0,NW,5.8,-,0.05,Rain,Light Rain,310,2012-10-05 17:51:00
1:54 PM,48.0,46.0,93,30.12,10.0,WNW,6.9,-,0.05,Rain,Light Rain,290,2012-10-05 17:54:00
2:54 PM,46.0,44.1,93,30.10,3.0,NW,10.4,-,0.05,Rain,Rain,320,2012-10-05 18:54:00
3:00 PM,46.4,44.6,93,30.10,3.0,NW,9.2,-,0.02,Rain,Rain,320,2012-10-05 19:00:00
3:28 PM,46.4,44.6,93,30.09,3.0,NW,6.9,-,0.06,Rain,Rain,310,2012-10-05 19:28:00
3:54 PM,46.0,45.0,96,30.11,7.0,NW,9.2,-,0.11,Rain,Light Rain,310,2012-10-05 19:54:00
4:44 PM,46.4,44.6,93,30.07,10.0,NNW,10.4,-,0.03,Rain,Light Rain,340,2012-10-05 20:44:00
4:54 PM,46.0,43.0,89,30.07,10.0,NNW,11.5,-,0.03,,Overcast,340,2012-10-05 20:54:00
5:20 PM,46.4,42.8,87,30.07,10.0,NNW,9.2,-,N/A,,Overcast,330,2012-10-05 21:20:00
5:54 PM,46.0,43.0,89,30.07,10.0,NNW,10.4,-,0.00,Rain,Light Rain,330,2012-10-05 21:54:00
6:50 PM,42.8,39.2,87,30.08,9.0,NNW,16.1,25.3,0.04,Rain,Light Rain,340,2012-10-05 22:50:00
6:54 PM,42.8,39.2,87,30.08,9.0,NNW,15.0,23.0,N/A,Rain,Light Rain,340,2012-10-05 22:54:00
7:54 PM,41.0,39.0,93,30.12,10.0,NW,15.0,-,0.06,Rain,Light Rain,320,2012-10-05 23:54:00
8:40 PM,41.0,39.2,93,30.11,9.0,NNW,12.7,-,0.09,Rain,Light Rain,330,2012-10-06 00:40:00
8:54 PM,41.0,39.9,96,30.10,9.0,North,11.5,-,0.10,Rain,Light Rain,350,2012-10-06 00:54:00
9:03 PM,42.8,39.2,87,30.10,8.0,NNW,11.5,-,0.02,Rain,Light Rain,330,2012-10-06 01:03:00
9:50 PM,41.0,39.2,93,30.09,7.0,NNW,10.4,-,0.03,Rain,Rain,340,2012-10-06 01:50:00
9:54 PM,41.0,39.0,93,30.14,6.0,NW,11.5,-,0.03,Rain,Light Rain,310,2012-10-06 01:54:00
10:38 PM,41.0,39.2,93,30.09,4.0,North,11.5,-,0.10,Rain,Heavy Rain,350,2012-10-06 02:38:00
10:54 PM,41.0,39.9,96,30.09,4.0,NNW,5.8,-,0.14,Rain,Rain,330,2012-10-06 02:54:00
11:54 PM,42.1,39.9,92,30.10,10.0,WNW,5.8,-,0.03,,Overcast,300,2012-10-06 03:54:00